Wind_Speed
20 23 26 25 24 24 23 22 20 18 17 16 15 15 16 16 17 17 17 16 15 14 14 13 14 14 15 15 15 16 16 15 15 14 13 13 11 11 10 10 9 7 6
19 20 21 25 27 26 26 25 23 21 19 19 18 17 17 17 18 19 19 18 17 16 16 16 15 15 15 15 16 16 16 17 16 16 16 16 15 14 13 12 11 10 9
21 21 20 22 24 27 28 27 26 24 23 22 21 19 19 19 19 20 21 21 20 19 18 18 17 16 16 16 16 17 17 18 17 17 18 18 18 16 16 15 14 12 11
17 20 23 21 22 24 25 26 27 26 26 25 24 22 21 21 21 21 22 22 22 21 21 19 19 18 17 17 18 18 19 19 20 20 20 20 20 19 19 18 16 16 14
22 20 22 24 22 21 23 25 27 28 28 27 27 26 24 23 23 21 23 24 24 23 23 22 20 20 19 19 19 19 20 20 21 22 21 22 22 22 21 20 19 18 19
31 29 26 26 24 23 23 24 25 27 29 30 30 28 26 25 25 23 23 24 25 25 24 23 22 21 20 20 21 21 21 21 22 22 23 22 23 23 24 23 22 22 22
44 35 35 35 30 30 25 27 27 28 28 30 33 30 29 28 26 24 24 24 25 26 26 25 24 22 21 21 21 22 23 23 23 23 25 24 25 25 25 25 25 24 24
46 46 42 39 39 34 39 35 32 30 29 30 33 33 33 31 27 24 24 24 24 26 26 26 25 23 23 22 23 23 24 25 25 25 26 26 27 27 27 28 28 27 27
41 46 46 46 43 40 42 36 41 32 31 32 33 35 36 33 29 25 23 24 24 24 26 27 26 25 24 24 24 25 26 26 26 27 27 28 29 30 30 30 31 31 31
47 48 48 48 45 49 46 47 44 40 33 33 36 36 35 34 32 31 25 23 24 24 25 27 27 27 26 26 25 25 26 27 27 27 28 28 30 31 31 32 32 32 32
43 45 47 48 50 51 48 49 48 43 40 35 37 36 37 35 34 33 29 25 24 25 26 28 29 28 28 28 27 27 27 27 27 28 28 29 30 31 32 33 33 34 35
53 48 45 49 52 53 53 50 46 47 44 41 34 40 40 38 35 33 32 28 27 26 27 28 29 29 30 28 28 28 28 28 28 29 30 30 31 32 33 34 35 37 37
48 50 50 48 50 54 54 53 49 47 50 47 39 39 41 40 38 35 34 31 30 29 28 28 29 30 30 29 29 29 29 29 30 31 32 32 33 34 35 36 37 39 40
44 43 46 46 47 47 53 54 54 49 50 52 47 37 42 41 41 38 36 33 33 32 30 28 28 30 31 31 31 30 31 32 32 33 34 35 36 36 37 38 39 40 41
46 45 44 43 45 44 43 50 53 54 51 52 49 40 41 41 43 42 39 35 34 34 31 29 30 30 31 32 32 32 33 34 35 35 36 37 38 38 39 40 41 41 42
47 48 47 45 44 43 43 43 47 50 51 52 51 44 40 43 42 45 42 38 36 34 34 31 30 30 32 33 33 34 35 36 37 38 39 40 40 41 42 42 42 43 44
45 47 49 49 44 42 41 42 42 42 49 49 49 46 43 43 43 47 45 40 38 35 34 32 32 32 32 32 34 35 36 37 38 39 40 41 41 43 43 44 44 45 45
42 44 49 47 44 41 40 41 39 38 44 49 49 48 46 40 45 47 47 42 38 36 34 33 34 32 31 33 35 36 38 38 39 39 41 42 43 43 44 45 46 44 42
41 43 47 43 43 42 43 38 36 41 43 46 54 47 50 40 44 46 48 43 39 36 34 34 32 32 32 34 36 37 37 38 40 38 40 42 42 44 45 43 41 40 37
40 40 42 41 41 44 42 42 40 39 42 50 55 49 48 40 42 45 46 42 39 37 36 33 32 32 32 34 36 37 38 39 39 38 40 42 41 41 38 36 36 35 35
39 39 43 43 43 42 40 38 38 42 45 48 46 51 41 43 40 43 46 43 39 38 35 33 32 32 30 33 35 37 38 38 36 35 37 35 38 40 40 42 42 41 40
38 38 40 42 42 41 40 39 38 39 46 46 50 55 50 42 38 43 47 43 40 36 32 33 31 30 31 32 34 36 37 38 38 28 36 35 40 40 39 38 38 37 33
38 38 40 41 42 42 41 37 37 40 45 49 49 50 39 41 37 43 45 42 38 32 32 31 29 30 30 30 33 34 35 37 34 30 37 35 30 33 31 35 35 37 34
39 38 39 42 42 40 39 37 38 40 45 50 46 42 37 41 40 41 43 40 32 31 30 30 28 28 28 28 33 33 32 33 32 27 27 38 31 35 36 40 38 36 36
40 40 40 42 40 38 38 34 38 43 40 48 48 43 43 42 38 39 40 34 31 29 29 27 26 25 26 27 29 32 30 34 31 28 26 34 34 36 36 36 42 38 37
41 40 42 41 38 38 33 34 41 36 35 44 48 53 40 42 37 39 34 32 29 28 27 24 22 22 24 25 26 32 32 35 36 41 36 38 32 31 37 32 29 32 24
Wind_Direction
290 278 271 267 267 270 270 271 274 279 285 291 295 294 290 283 280 280 282 284 285 286 286 282 279 276 272 266 264 263 263 261 261 259 257 256 252 252 252 253 258 264 274
303 297 285 280 275 271 271 271 271 274 278 282 287 289 290 287 281 278 277 279 281 282 282 284 282 278 272 265 263 264 264 263 261 259 258 258 258 255 256 254 256 258 262
306 308 302 287 283 275 271 270 271 272 275 277 281 285 287 288 284 278 275 275 277 280 280 282 283 280 274 267 261 262 265 265 264 262 260 257 258 259 259 260 260 259 259
303 307 307 304 285 282 278 274 271 270 270 272 276 278 281 283 283 279 275 272 271 274 276 278 280 280 276 270 264 259 260 263 265 264 264 265 264 264 263 263 261 263 264
277 286 294 301 295 290 285 280 277 273 270 270 271 274 278 279 280 279 275 272 270 270 272 274 276 277 275 271 266 263 261 262 263 265 265 266 266 267 264 263 262 261 265
269 274 279 281 287 291 290 281 276 273 270 268 268 269 273 275 276 278 275 273 271 269 269 270 272 273 273 270 268 264 262 263 264 266 265 265 265 266 266 265 264 264 265
269 264 273 273 269 279 284 285 279 275 272 272 269 267 268 269 270 274 274 272 271 268 267 268 269 270 270 270 269 267 263 263 263 263 266 266 267 267 268 269 268 266 265
269 272 274 270 272 267 273 276 275 276 273 269 270 269 265 263 267 270 270 272 271 268 267 266 266 266 269 269 268 268 266 265 264 264 265 267 267 268 268 269 269 268 268
262 271 268 262 270 268 267 270 272 267 274 268 265 264 268 266 266 264 266 269 271 270 266 265 264 264 266 268 270 271 270 269 268 268 268 268 269 269 268 267 267 268 268
271 271 268 267 261 261 262 267 262 270 265 272 264 261 262 266 266 264 260 264 269 271 267 264 264 263 264 267 268 268 270 270 269 269 269 269 270 270 269 268 267 267 266
271 271 272 271 271 269 258 263 268 262 267 261 268 261 257 257 259 261 263 262 266 270 267 263 260 262 262 264 267 270 271 271 271 271 271 270 270 270 271 271 271 270 267
276 271 265 264 266 266 265 256 260 262 261 258 264 263 255 253 254 258 260 261 260 263 268 265 262 261 261 263 267 272 274 275 275 275 275 274 273 273 273 273 273 272 271
282 279 275 268 261 260 260 260 252 253 258 256 251 265 257 250 250 251 254 257 261 262 264 264 262 263 264 266 269 272 276 277 278 278 277 277 277 278 279 277 276 274 273
290 288 285 281 277 268 259 255 253 248 251 255 250 252 258 250 246 246 249 253 257 261 263 265 262 262 264 267 271 276 279 279 280 280 280 281 281 281 280 278 276 274 273
291 290 288 286 281 279 271 261 252 245 245 251 250 243 255 251 245 243 244 247 253 257 263 264 261 261 264 267 272 276 279 280 281 281 281 281 281 281 279 277 277 275 274
288 290 289 287 280 275 277 273 263 252 240 242 245 237 243 251 245 241 240 243 247 254 259 262 260 260 262 267 272 275 278 281 283 283 283 284 284 283 282 281 279 277 276
276 279 285 288 285 276 270 274 271 262 247 240 235 232 238 244 246 240 238 238 243 250 258 259 257 257 260 265 271 274 278 280 281 282 284 285 284 283 283 282 280 279 278
277 278 278 281 285 279 274 270 267 261 252 240 236 231 231 238 244 238 235 236 240 246 254 257 255 257 260 265 270 274 277 280 282 285 285 285 284 284 282 280 278 276 272
280 281 281 284 280 279 271 271 267 258 250 243 241 225 232 226 240 237 233 233 237 245 251 253 253 257 260 267 272 276 279 282 284 283 283 284 284 283 282 280 277 274 268
281 283 283 280 277 279 272 267 271 264 258 241 235 230 230 220 233 234 231 231 235 242 248 250 251 254 260 268 273 278 280 284 284 286 287 287 285 282 279 279 275 272 268
282 283 283 279 275 278 278 269 272 268 262 247 239 233 217 224 225 231 227 227 233 240 246 248 251 255 263 269 276 280 283 283 285 290 287 281 282 282 282 278 273 268 263
285 282 283 282 278 274 276 276 271 268 266 258 239 232 222 218 218 223 224 224 231 239 244 247 252 259 265 274 279 283 287 289 290 284 279 278 280 276 274 272 270 266 260
285 286 284 283 280 277 277 275 272 257 264 257 237 232 211 215 216 218 220 222 230 237 241 248 254 263 270 278 282 283 287 289 292 290 285 279 271 271 272 257 263 262 260
280 285 283 282 280 280 284 277 269 263 262 244 227 221 204 212 212 212 215 221 228 233 241 247 256 267 275 279 282 286 291 291 292 296 284 279 274 274 269 260 253 251 247
277 281 283 284 285 285 282 275 272 277 246 227 227 211 205 204 205 207 212 218 223 231 239 249 258 267 278 283 288 293 297 293 296 296 295 293 295 283 281 266 247 251 244
275 278 282 287 288 288 282 282 279 274 235 222 229 208 195 196 196 202 208 214 219 228 238 251 265 275 282 287 296 302 299 296 300 301 306 295 285 282 280 281 246 238 221
Height
3165 3165 3165 3165 3165 3165 3165 3165 3166 3166 3166 3166 3166 3166 3165 3165 3165 3164 3164 3163 3163 3163 3162 3162 3162 3162 3162 3161 3161 3162 3163 3163 3163 3163 3163 3164 3164 3164 3165 3165 3165 3165 3165
3162 3161 3160 3160 3161 3161 3161 3161 3161 3161 3161 3161 3162 3162 3161 3161 3161 3160 3160 3159 3159 3159 3159 3158 3158 3158 3158 3158 3158 3158 3159 3160 3160 3160 3161 3160 3161 3161 3162 3162 3163 3163 3163
3158 3157 3156 3155 3155 3155 3155 3155 3155 3156 3156 3156 3156 3157 3156 3156 3156 3156 3155 3155 3155 3155 3155 3154 3154 3154 3154 3155 3155 3154 3155 3156 3157 3157 3157 3158 3158 3158 3159 3159 3159 3159 3160
3153 3153 3152 3151 3149 3149 3149 3150 3149 3150 3150 3150 3150 3150 3151 3151 3151 3150 3150 3150 3150 3150 3150 3150 3150 3150 3150 3150 3150 3151 3151 3151 3152 3153 3153 3154 3155 3155 3156 3156 3156 3156 3157
3146 3146 3147 3147 3144 3143 3143 3143 3143 3144 3144 3144 3143 3143 3144 3144 3145 3145 3145 3144 3145 3145 3145 3145 3145 3145 3145 3145 3146 3146 3146 3147 3147 3148 3149 3149 3150 3150 3151 3152 3153 3153 3153
3139 3139 3139 3140 3138 3137 3137 3136 3136 3136 3137 3137 3136 3137 3137 3137 3138 3139 3139 3139 3139 3139 3140 3140 3140 3140 3140 3140 3141 3141 3141 3141 3142 3143 3143 3144 3145 3145 3146 3147 3149 3149 3150
3128 3129 3130 3132 3130 3130 3130 3130 3129 3128 3129 3129 3128 3129 3129 3129 3131 3132 3132 3133 3133 3133 3134 3134 3135 3135 3135 3135 3135 3136 3136 3136 3137 3138 3138 3139 3139 3140 3141 3142 3143 3144 3144
3117 3117 3118 3120 3120 3120 3122 3121 3122 3121 3121 3121 3120 3121 3120 3122 3124 3125 3125 3126 3127 3127 3128 3128 3129 3129 3129 3130 3130 3130 3131 3130 3131 3131 3132 3133 3133 3134 3135 3135 3136 3137 3138
3105 3104 3104 3106 3109 3110 3111 3111 3112 3112 3113 3112 3112 3112 3112 3113 3115 3116 3118 3119 3119 3120 3121 3122 3123 3123 3123 3124 3124 3124 3124 3125 3125 3125 3126 3126 3127 3128 3128 3129 3129 3130 3131
3096 3095 3093 3093 3095 3097 3098 3101 3102 3102 3103 3104 3102 3104 3105 3106 3106 3107 3109 3111 3112 3113 3114 3115 3116 3116 3117 3117 3118 3118 3118 3118 3118 3119 3119 3119 3119 3120 3121 3121 3122 3122 3123
3084 3083 3082 3080 3080 3082 3085 3088 3089 3091 3093 3093 3094 3095 3095 3097 3098 3099 3100 3102 3103 3105 3106 3107 3108 3109 3110 3110 3111 3111 3111 3111 3111 3111 3112 3112 3112 3112 3112 3113 3113 3114 3115
3069 3068 3067 3066 3066 3067 3069 3072 3077 3078 3081 3082 3085 3084 3085 3088 3090 3091 3092 3094 3095 3096 3097 3098 3100 3101 3102 3102 3103 3103 3103 3104 3103 3103 3103 3103 3103 3104 3104 3104 3105 3105 3105
3051 3050 3050 3051 3052 3051 3052 3056 3059 3063 3066 3069 3073 3074 3075 3078 3081 3083 3083 3085 3086 3087 3088 3090 3091 3092 3093 3094 3094 3095 3095 3095 3095 3094 3094 3094 3094 3094 3095 3095 3095 3094 3094
3037 3035 3033 3034 3035 3036 3037 3039 3042 3047 3051 3053 3058 3062 3065 3067 3070 3073 3075 3076 3077 3079 3080 3081 3083 3084 3084 3085 3085 3086 3086 3086 3086 3085 3085 3084 3084 3084 3084 3084 3084 3083 3083
3023 3022 3021 3020 3021 3021 3022 3023 3026 3029 3035 3039 3043 3050 3053 3057 3059 3063 3065 3067 3069 3070 3072 3073 3073 3075 3075 3076 3076 3077 3077 3077 3076 3075 3075 3074 3074 3074 3073 3073 3073 3073 3072
3012 3009 3009 3008 3008 3007 3007 3008 3010 3015 3018 3023 3027 3034 3040 3045 3048 3051 3054 3057 3059 3061 3062 3064 3065 3066 3066 3067 3068 3068 3067 3067 3066 3065 3064 3063 3062 3061 3061 3060 3060 3060 3060
3004 3001 2997 2995 2994 2995 2996 2996 2997 3000 3003 3009 3013 3019 3026 3032 3035 3039 3043 3047 3050 3052 3054 3056 3056 3057 3058 3059 3059 3058 3058 3057 3056 3055 3054 3052 3051 3049 3048 3048 3048 3047 3047
2993 2990 2987 2986 2983 2982 2983 2983 2985 2986 2988 2995 2999 3004 3011 3017 3022 3027 3031 3037 3040 3043 3045 3047 3047 3049 3050 3049 3049 3049 3048 3048 3046 3045 3042 3040 3038 3037 3036 3035 3034 3034 3034
2982 2979 2975 2974 2973 2971 2971 2971 2972 2974 2975 2979 2982 2987 2997 3002 3009 3014 3020 3026 3031 3033 3035 3036 3040 3041 3041 3040 3040 3040 3039 3037 3035 3034 3031 3028 3026 3024 3022 3021 3020 3021 3023
2969 2967 2964 2963 2961 2959 2959 2960 2960 2961 2963 2965 2972 2977 2984 2987 2996 3004 3010 3016 3020 3023 3025 3027 3030 3032 3032 3031 3030 3030 3028 3026 3025 3023 3019 3015 3013 3010 3009 3009 3009 3010 3011
2957 2954 2952 2950 2949 2947 2946 2948 2948 2948 2949 2953 2955 2961 2967 2977 2984 2992 2998 3004 3009 3013 3016 3018 3021 3023 3024 3022 3021 3019 3017 3015 3014 3013 3007 3004 3000 2998 2998 2997 2998 2998 3000
2945 2942 2940 2937 2935 2934 2933 2934 2936 2935 2934 2937 2945 2950 2958 2967 2972 2981 2987 2994 2999 3004 3008 3009 3012 3013 3015 3013 3011 3008 3006 3002 3000 3004 2994 2993 2989 2986 2986 2984 2983 2984 2987
2932 2930 2927 2924 2922 2921 2920 2921 2921 2922 2921 2922 2930 2937 2945 2955 2961 2970 2979 2985 2991 2996 2999 3001 3003 3004 3005 3004 3000 2999 2996 2991 2989 2989 2982 2980 2979 2977 2976 2974 2973 2972 2974
2919 2917 2915 2912 2909 2908 2908 2907 2907 2907 2907 2907 2916 2926 2937 2944 2952 2961 2971 2978 2984 2988 2991 2993 2995 2996 2995 2994 2991 2988 2985 2979 2978 2977 2971 2965 2968 2965 2963 2961 2962 2963 2965
2906 2905 2902 2899 2897 2896 2894 2893 2892 2890 2889 2895 2906 2917 2926 2933 2944 2955 2963 2971 2976 2981 2982 2985 2987 2987 2985 2984 2981 2976 2974 2966 2964 2964 2964 2954 2953 2946 2943 2942 2944 2948 2954
2894 2892 2890 2888 2886 2883 2882 2880 2877 2873 2876 2885 2895 2908 2916 2926 2936 2947 2957 2964 2970 2974 2976 2978 2979 2978 2977 2975 2971 2965 2961 2956 2953 2945 2948 2940 2938 2935 2930 2927 2929 2936 2944